This demonstration page uses our WeatherBlox Daily Observations layout. Learn more.

Left ArrowRight Arrow

36.19886, -115.1175

Hourly Observations for September 30, 2022

Temp ( °F °C ) Dew Point ( °F °C ) Humidity (%) Winds ( mph kmh ) Pressure ( in mb ) Visibility ( mi km ) Precip ( " mm )
12:53 am 00:53 Clear 81 27.2 51 10.6 35 35 E 6 9 29.85 1011 10 16 0.00 0.00
1:53 am 01:53 Clear 80 26.7 52 11.1 38 38 SSE 7 11 29.85 1011 10 16 0.00 0.00
2:53 am 02:53 Clear 79 26.1 49 9.4 35 35 SSE 7 11 29.85 1011 10 16 0.00 0.00
3:53 am 03:53 Clear 78 25.6 48 8.9 35 35 W 3 6 29.84 1011 10 16 0.00 0.00
4:53 am 04:53 Clear 75 23.9 53 11.7 46 46 Calm 29.85 1011 10 16 0.00 0.00
5:53 am 05:53 Clear 73 22.8 53 11.7 50 50 W 3 6 29.85 1011 10 16 0.00 0.00
6:53 am 06:53 Sunny 72 22.2 50 10 46 46 NW 5 7 29.87 1011 10 16 0.00 0.00
7:53 am 07:53 Sunny 76 24.4 48 8.9 37 37 NNW 5 7 29.88 1012 10 16 0.00 0.00
8:53 am 08:53 Sunny 80 26.7 48 8.9 33 33 Calm 29.88 1012 10 16 0.00 0.00
9:53 am 09:53 Sunny 85 29.4 40 4.4 20 20 SSE 5 7 29.87 1011 10 16 0.00 0.00
10:53 am 10:53 Sunny 88 31.1 41 5 19 19 SE 6 9 29.85 1011 10 16 0.00 0.00
11:53 am 11:53 Sunny 92 33.3 38 3.3 15 15 SE 9 15 29.81 1010 10 16 0.00 0.00
12:53 pm 12:53 Sunny 94 34.4 35 1.7 13 13 Calm 29.78 1009 10 16 0.00 0.00
1:53 pm 13:53 Sunny 95 35 35 1.7 12 12 undefined N/A 29.75 1007 10 16 0.00 0.00
2:53 pm 14:53 Sunny 96 35.6 33 0.6 11 11 SW 12 19 29.72 1006 10 16 0.00 0.00
3:53 pm 15:53 Sunny 96 35.6 33 0.6 11 11 S 14 22 29.70 1006 10 16 0.00 0.00
4:53 pm 16:53 Sunny 96 35.6 33 0.6 11 11 SW 14 22 29.69 1005 10 16 0.00 0.00
5:53 pm 17:53 Sunny 94 34.4 34 1.1 12 12 SSW 13 20 29.69 1005 10 16 0.00 0.00
6:53 pm 18:53 Clear 92 33.3 33 0.6 12 12 SW 9 15 29.70 1006 10 16 0.00 0.00
7:53 pm 19:53 Clear 89 31.7 33 0.6 14 14 SSW 10 17 29.70 1006 10 16 0.00 0.00
8:53 pm 20:53 Clear 87 30.6 33 0.6 15 15 SW 5 7 29.71 1006 10 16 0.00 0.00
9:53 pm 21:53 Clear 87 30.6 32 0 14 14 Calm 29.73 1007 10 16 0.00 0.00
10:53 pm 22:53 Clear 81 27.2 34 1.1 18 18 Calm 29.74 1007 10 16 0.00 0.00
11:53 pm 23:53 Clear 81 27.2 34 1.1 18 18 Calm 29.74 1007 10 16 0.00 0.00

Powered by AerisWeather